Miscellaneous Local Product
Issued by NWS North Platte, NE

Home | Current Version | Previous Version | Text Only | Print | Product List | Glossary On
Versions: 1 2 3 4 5 6 7 8 9 10 11 12 13 14 15 16 17 18 19 20 21 22 23 24 25 26 27 28 29 30 31 32 33 34 35 36 37 38 39 40 41 42 43 44 45 46 47 48 49 50
222
AXUS43 KLBF 261410
MISLBF


WESTERN AND NORTH CENTRAL NEBRASKA HOURLY WEATHER ROUNDUP
NATIONAL WEATHER SERVICE NORTH PLATTE NE
900 AM CDT SUN MAR 26 2017

NOTE: "FAIR" INDICATES FEW OR NO CLOUDS BELOW 12,000 FEET WITH NO
SIGNIFICANT WEATHER AND/OR OBSTRUCTIONS TO VISIBILITY.

NOTE: STATIONS NOT REPORTING VARIABLES SUCH AS SKY/WEATHER OR
PRESSURE ARE PROVIDED BY RAWS AND APRS NETWORKS AND ARE NOT UNDER
NATIONAL WEATHER SERVICE QUALITY CONTROL.

...OBSERVATIONS IN AND NEAR THE EASTERN PANHANDLE OF NEBRASKA...

CITY           SKY/WX    TMP DP  RH WIND       PRES   REMARKS
PINE RIDGE     CLOUDY    46  34  62 N15       29.85R
CHADRON        CLOUDY    44  33  65 N7        29.87R
ALLIANCE       CLOUDY    39  37  92 CALM      29.83R
SIDNEY         LGT RAIN  42  34  73 S8        29.83R
CRESCENT LAKE    N/A     39  39 100 SE5         N/A
$$

...OBSERVATIONS IN NORTHERN NEBRASKA AND FAR SOUTHERN SOUTH DAKOTA...

CITY           SKY/WX    TMP DP  RH WIND       PRES   REMARKS
WINNER         CLOUDY    40  39  97 SE5       29.90S FOG
VALENTINE      CLOUDY    40  36  86 SW8       29.87S WCI  34
THEDFORD       CLOUDY    40  40  97 W5        29.88R FOG
AINSWORTH      FOG       38  38 100 SW6       29.88S VSB 1/2 WCI  34
O`NEILL        FOG       39  39  99 CALM      29.91R VSB 1/4
ORD            FOG       40  38  93 CALM      29.89R VSB 1/2
BROKEN BOW     CLOUDY    41  40  96 W6        29.88R FOG
VALENTINE NWR    N/A     37  37 100 SW7         N/A  WCI  31
HALSEY           N/A     37  36  98 CALM        N/A
BUTTE            N/A     37  36  97 CALM        N/A
CHAMBERS         N/A     40  39  98 CALM        N/A
EWING            N/A     39  39 100 E3          N/A
$$

...OBSERVATIONS IN SOUTHWEST NEBRASKA AND FAR NORTHEAST COLORADO...

CITY           SKY/WX    TMP DP  RH WIND       PRES   REMARKS
WRAY           FOG      N/A N/A N/A E6        29.84R VSB 1/4
HOLYOKE        CLOUDY    41  39  93 E3        29.85R FOG
IMPERIAL       CLOUDY    39  38  96 SE8       29.86R FOG     WCI  33
OGALLALA       CLOUDY    40  40  97 SE3       29.86R FOG
NORTH PLATTE   CLOUDY    41  37  86 NW5       29.88R
MCCOOK         CLOUDY    40  40 100 S5        29.89R FOG
LEXINGTON      CLOUDY    40  37  89 CALM      29.90R
STAPLETON        N/A     38  36  94 CALM        N/A
GOTHENBURG       N/A     41  36  83 CALM        N/A
CALLAWAY         N/A     38  37  95 NW6         N/A  WCI  33
$$

...OBSERVATIONS IN CENTRAL LINCOLN COUNTY AREA...

CITY           SKY/WX    TMP DP  RH WIND       PRES   REMARKS
N.P. AIRPORT   CLOUDY    41  37  86 NW5       29.88R
N.P. DOWNTOWN    N/A     39  37  93 CALM        N/A
N.P. SOUTHEAST   N/A     40  38  92 CALM        N/A
N.P. HILLCREST   N/A     39  38  95 W3          N/A
$$

...SOME OBSERVATIONS FROM AROUND THE REGION...

CITY           SKY/WX    TMP DP  RH WIND       PRES   REMARKS
DENVER         CLOUDY    41  30  65 NW12      29.84R
LIMON          CLOUDY    40  34  79 N7        29.80R
ASPEN          LGT SNOW  34  33  96 N5        29.92R FOG     WCI  30
LARAMIE        CLOUDY    34  33  96 CALM      29.88R
CASPER         CLOUDY    36  36 100 N7        29.95R WCI  30
CHEYENNE       CLOUDY    39  33  79 N14G21    29.87R WCI  31
SCOTTSBLUFF    CLOUDY    44  31  60 NW8       29.84R
GRAND ISLAND   CLOUDY    39  39 100 E3        29.91R FOG
OMAHA          CLOUDY    42  38  85 N8        29.90S FOG
SIOUX FALLS    DRIZZLE   39  37  92 NE6       29.92S FOG     WCI  35
PIERRE         CLOUDY    40  38  93 E5        29.91R
RAPID CITY     CLOUDY    40  36  86 N13       29.88R WCI  32
BISMARCK       CLOUDY    38  35  89 CALM      29.92F
KANSAS CITY    CLOUDY    44  42  93 NW3       29.89F
HILL CITY      CLOUDY    41  41 100 E7        29.88S FOG
WICHITA        CLOUDY    44  43  96 S5        29.91S FOG
DODGE CITY     FOG       39  39 100 E16G22    29.81F VSB 1/4 WCI  30
OKLAHOMA CITY  PTSUNNY   50  45  83 SE10      29.87S
DALLAS         MOSUNNY   61  52  72 SE14G21   29.88R
AMARILLO       CLOUDY    50  31  48 S9        29.75R
$$




USA.gov is the U.S. government's official web portal to all federal, state and local government web resources and services.